| time (UTC) | temp F | wind direction | speed knots | gust knots | rain 1hr in | rain 24hr in | rain mn in | humidity % | barometer mb |
| 20260502194522 | 53 | 0.0 | 0.0 | 0.02 | 0.61 | 0.61 | 98 | 1011.7 | |
| 20260502193539 | 53 | 0.0 | 0.0 | 0.04 | 0.61 | 0.61 | 98 | 1011.7 | |
| 20260502192519 | 53 | 0.0 | 0.0 | 0.06 | 0.61 | 0.61 | 98 | 1011.7 | |
| 20260502190539 | 54 | 0.0 | 0.0 | 0.09 | 0.60 | 0.60 | 98 | 1011.8 | |
| 20260502185520 | 54 | 0.0 | 0.0 | 0.12 | 0.60 | 0.60 | 98 | 1011.8 | |
| 20260502184517 | 54 | 252 | 0.0 | 0.9 | 0.14 | 0.59 | 0.59 | 98 | 1011.8 |
| 20260502183520 | 54 | 0.0 | 0.0 | 0.15 | 0.57 | 0.57 | 98 | 1011.9 | |
| 20260502182520 | 54 | 0.0 | 0.0 | 0.16 | 0.55 | 0.55 | 98 | 1011.9 | |
| 20260502181520 | 54 | 266 | 0.0 | 0.9 | 0.16 | 0.54 | 0.54 | 98 | 1011.9 |
| 20260502180518 | 54 | 263 | 0.0 | 0.9 | 0.14 | 0.51 | 0.51 | 97 | 1012.1 |
| 20260502170518 | 54 | 272 | 0.0 | 0.9 | 0.15 | 0.37 | 0.37 | 96 | 1012.4 |
| 20260502163522 | 54 | 325 | 0.0 | 1.7 | 0.24 | 0.35 | 0.35 | 95 | 1012.7 |
| 20260502162536 | 54 | 301 | 0.0 | 2.6 | 0.21 | 0.31 | 0.31 | 94 | 1013.1 |
| 20260502161536 | 54 | 322 | 0.0 | 1.7 | 0.19 | 0.26 | 0.26 | 93 | 1013.2 |
| 20260502160619 | 54 | 264 | 0.0 | 0.9 | 0.18 | 0.23 | 0.23 | 92 | 1013.3 |
| 20260502151521 | 58 | 0.0 | 0.0 | 0.06 | 0.07 | 0.07 | 84 | 1013.9 | |
| 20260502150526 | 59 | 0.0 | 0.0 | 0.04 | 0.05 | 0.05 | 82 | 1013.9 | |
| 20260502130520 | 62 | 149 | 0.0 | 1.7 | 0.01 | 0.01 | 0.01 | 66 | 1014.9 |
| 20260502123517 | 63 | 121 | 0.0 | 3.5 | 0.00 | 0.00 | 0.00 | 63 | 1015.2 |
| 20260502122517 | 63 | 129 | 0.0 | 2.6 | 0.00 | 0.00 | 0.00 | 62 | 1015.3 |
| 20260502121518 | 63 | 146 | 0.9 | 2.6 | 0.00 | 0.00 | 0.00 | 63 | 1015.6 |
| 20260502120518 | 63 | 134 | 0.9 | 2.6 | 0.00 | 0.00 | 0.00 | 61 | 1015.7 |
| 20260502115521 | 64 | 136 | 0.9 | 3.5 | 0.00 | 0.00 | 0.00 | 60 | 1015.8 |
| 20260502114518 | 64 | 141 | 0.0 | 2.6 | 0.00 | 0.00 | 0.00 | 62 | 1015.9 |
| 20260502113518 | 63 | 138 | 0.9 | 3.5 | 0.00 | 0.00 | 0.00 | 62 | 1016.1 |
| 20260502112519 | 63 | 130 | 0.0 | 2.6 | 0.00 | 0.00 | 0.00 | 63 | 1016.2 |
| 20260502111639 | 62 | 329 | 0.0 | 1.7 | 0.00 | 0.00 | 0.00 | 65 | 1016.5 |
| 20260502110519 | 61 | 130 | 0.0 | 1.7 | 0.00 | 0.00 | 0.00 | 68 | 1016.8 |
| 20260502105539 | 60 | 115 | 0.0 | 2.6 | 0.00 | 0.00 | 0.00 | 69 | 1016.9 |
| 20260502104519 | 59 | 122 | 0.0 | 2.6 | 0.00 | 0.00 | 0.00 | 72 | 1017.1 |
| 20260502103519 | 59 | 159 | 0.0 | 2.6 | 0.00 | 0.00 | 0.00 | 73 | 1017.2 |
| 20260502102520 | 59 | 138 | 0.9 | 3.5 | 0.00 | 0.00 | 0.00 | 72 | 1017.0 |
| 20260502101540 | 58 | 89 | 0.0 | 0.9 | 0.00 | 0.00 | 0.00 | 75 | 1017.1 |
| 20260502100523 | 58 | 139 | 0.9 | 3.5 | 0.00 | 0.00 | 0.00 | 77 | 1017.2 |
| 20260502091521 | 57 | 323 | 0.0 | 2.6 | 0.00 | 0.00 | 0.00 | 81 | 1017.2 |
| 20260502090518 | 56 | 0.0 | 0.0 | 0.00 | 0.00 | 0.00 | 83 | 1017.2 | |
| 20260502071520 | 50 | 0.0 | 0.0 | 0.00 | 0.00 | 0.00 | 100 | 1017.9 | |
| 20260502070540 | 49 | 0.0 | 0.0 | 0.00 | 0.00 | 0.00 | 100 | 1017.8 | |
| 20260502065517 | 48 | 0.0 | 0.0 | 0.00 | 0.00 | 0.00 | 100 | 1017.9 | |
| 20260502064529 | 47 | 0.0 | 0.0 | 0.00 | 0.00 | 0.00 | 100 | 1018.0 | |
| 20260502063523 | 46 | 0.0 | 0.0 | 0.00 | 0.00 | 0.00 | 100 | 1018.0 | |
| 20260502062526 | 45 | 0.0 | 0.0 | 0.00 | 0.00 | 0.00 | 100 | 1018.0 | |
| 20260502061518 | 45 | 0.0 | 0.0 | 0.00 | 0.00 | 0.00 | 100 | 1018.0 | |
| 20260502060518 | 45 | 0.0 | 0.0 | 0.00 | 0.00 | 0.00 | 99 | 1018.1 | |
| 20260502055518 | 44 | 0.0 | 0.0 | 0.00 | 0.00 | 0.00 | 99 | 1018.2 | |
| 20260502054521 | 44 | 321 | 0.0 | 0.9 | 0.00 | 0.00 | 0.00 | 99 | 1018.2 |
| 20260502053524 | 43 | 0.0 | 0.0 | 0.00 | 0.00 | 0.00 | 99 | 1018.3 | |
| 20260502052521 | 43 | 0.0 | 0.0 | 0.00 | 0.00 | 0.00 | 99 | 1018.3 | |
| 20260502051522 | 43 | 278 | 0.0 | 0.9 | 0.00 | 0.00 | 0.00 | 99 | 1018.2 |
| 20260502050519 | 43 | 283 | 0.0 | 0.9 | 0.00 | 0.00 | 0.00 | 99 | 1018.1 |
| 20260502045519 | 43 | 252 | 0.0 | 0.9 | 0.00 | 0.00 | 0.00 | 99 | 1018.0 |
| 20260502044519 | 43 | 294 | 0.0 | 0.9 | 0.00 | 0.00 | 0.00 | 99 | 1017.9 |
| 20260502043519 | 43 | 0.0 | 0.0 | 0.00 | 0.00 | 0.00 | 99 | 1017.8 | |
| 20260502042539 | 44 | 0.0 | 0.0 | 0.00 | 0.00 | 0.00 | 98 | 1017.9 | |
| 20260502041517 | 44 | 0.0 | 0.0 | 0.00 | 0.00 | 0.00 | 98 | 1018.0 | |
| 20260502040526 | 44 | 0.0 | 0.0 | 0.00 | 0.00 | 0.00 | 98 | 1018.1 | |
| 20260502035520 | 44 | 0.0 | 0.0 | 0.00 | 0.00 | 0.00 | 98 | 1018.1 | |
| 20260502034520 | 44 | 0.0 | 0.0 | 0.00 | 0.00 | 0.00 | 98 | 1018.2 | |
| 20260502033520 | 45 | 0.0 | 0.0 | 0.00 | 0.00 | 0.00 | 98 | 1018.2 | |
| 20260502032520 | 45 | 0.0 | 0.0 | 0.00 | 0.00 | 0.00 | 98 | 1018.4 | |
| 20260502031518 | 45 | 213 | 0.0 | 0.9 | 0.00 | 0.00 | 0.00 | 98 | 1018.5 |
| 20260502030518 | 46 | 0.0 | 0.0 | 0.00 | 0.00 | 0.00 | 98 | 1018.6 | |
| 20260502025518 | 46 | 0.0 | 0.0 | 0.00 | 0.00 | 0.00 | 98 | 1018.7 | |
| 20260502024701 | 46 | 0.0 | 0.0 | 0.00 | 0.00 | 0.00 | 98 | 1018.8 | |
| 20260502023518 | 46 | 0.0 | 0.0 | 0.00 | 0.00 | 0.00 | 98 | 1018.9 | |
| 20260502022518 | 46 | 0.0 | 0.0 | 0.00 | 0.00 | 0.00 | 98 | 1018.9 | |
| 20260502021541 | 46 | 0.0 | 0.0 | 0.00 | 0.00 | 0.00 | 98 | 1019.0 | |
| 20260502020519 | 46 | 0.0 | 0.0 | 0.00 | 0.00 | 0.00 | 98 | 1019.0 | |
| 20260502015519 | 46 | 238 | 0.0 | 1.7 | 0.00 | 0.00 | 0.00 | 98 | 1019.2 |
| 20260502014519 | 46 | 290 | 0.0 | 0.9 | 0.00 | 0.00 | 0.00 | 98 | 1019.2 |
| 20260502013519 | 46 | 331 | 0.0 | 1.7 | 0.00 | 0.00 | 0.00 | 98 | 1019.3 |
| 20260502012522 | 46 | 261 | 0.0 | 0.9 | 0.00 | 0.00 | 0.00 | 98 | 1019.3 |
| 20260502011520 | 47 | 266 | 0.0 | 1.7 | 0.00 | 0.00 | 0.00 | 97 | 1019.3 |
| 20260502010520 | 47 | 302 | 0.0 | 0.9 | 0.00 | 0.00 | 0.00 | 97 | 1019.3 |
| 20260502005520 | 47 | 301 | 0.0 | 2.6 | 0.00 | 0.00 | 0.00 | 97 | 1019.4 |
| 20260502004520 | 47 | 0.0 | 0.0 | 0.00 | 0.00 | 0.00 | 97 | 1019.6 | |
| 20260502003518 | 47 | 0.0 | 0.0 | 0.00 | 0.00 | 0.00 | 97 | 1019.7 | |
| 20260502002517 | 47 | 291 | 0.0 | 0.9 | 0.00 | 0.00 | 0.00 | 96 | 1019.8 |
| 20260502001518 | 48 | 0.0 | 0.0 | 0.00 | 0.00 | 0.00 | 96 | 1019.8 | |
| 20260502000641 | 48 | 0.0 | 0.0 | 0.00 | 0.00 | 0.00 | 96 | 1019.8 | |
| 20260501235518 | 48 | 0.0 | 0.0 | 0.00 | 0.00 | 0.00 | 96 | 1019.8 | |
| 20260501234521 | 48 | 0.0 | 0.0 | 0.00 | 0.00 | 0.00 | 96 | 1019.8 | |
| 20260501233518 | 49 | 0.0 | 0.0 | 0.00 | 0.00 | 0.00 | 96 | 1019.9 | |
| 20260501232618 | 49 | 0.0 | 0.0 | 0.00 | 0.00 | 0.00 | 96 | 1019.9 | |
| 20260501231539 | 49 | 0.0 | 0.0 | 0.00 | 0.00 | 0.00 | 95 | 1020.1 | |
| 20260501230518 | 49 | 292 | 0.0 | 0.9 | 0.00 | 0.00 | 0.00 | 95 | 1020.2 |
| 20260501225519 | 49 | 0.0 | 0.0 | 0.00 | 0.00 | 0.00 | 95 | 1020.2 | |
| 20260501224519 | 49 | 0.0 | 0.0 | 0.00 | 0.00 | 0.00 | 95 | 1020.3 | |
| 20260501222519 | 49 | 0.0 | 0.0 | 0.00 | 0.00 | 0.00 | 95 | 1020.3 | |
| 20260501221520 | 49 | 262 | 0.0 | 0.9 | 0.00 | 0.00 | 0.00 | 92 | 1020.4 |
| 20260501220520 | 49 | 299 | 0.0 | 1.7 | 0.00 | 0.00 | 0.00 | 92 | 1020.3 |
| 20260501215537 | 49 | 0.0 | 0.0 | 0.00 | 0.00 | 0.00 | 91 | 1020.3 | |
| 20260501214517 | 49 | 238 | 0.0 | 0.9 | 0.00 | 0.00 | 0.00 | 91 | 1020.2 |
| 20260501213520 | 50 | 267 | 0.0 | 0.9 | 0.00 | 0.00 | 0.00 | 91 | 1020.2 |
| 20260501212540 | 50 | 290 | 0.0 | 0.9 | 0.00 | 0.00 | 0.00 | 90 | 1020.1 |
| 20260501211521 | 50 | 223 | 0.0 | 0.9 | 0.00 | 0.00 | 0.00 | 90 | 1020.1 |
| 20260501210518 | 50 | 251 | 0.0 | 2.6 | 0.00 | 0.00 | 0.00 | 89 | 1020.1 |
| 20260501205518 | 50 | 0.0 | 0.0 | 0.00 | 0.00 | 0.00 | 88 | 1020.1 | |
| 20260501204518 | 51 | 0.0 | 0.0 | 0.00 | 0.00 | 0.00 | 88 | 1020.0 | |
| 20260501203519 | 51 | 270 | 0.0 | 1.7 | 0.00 | 0.00 | 0.00 | 87 | 1020.0 |
| 20260501202521 | 52 | 0.0 | 0.0 | 0.00 | 0.00 | 0.00 | 86 | 1020.0 | |
| 20260501201518 | 52 | 251 | 0.0 | 0.9 | 0.00 | 0.00 | 0.00 | 85 | 1020.0 |
| 20260501200519 | 53 | 251 | 0.0 | 0.9 | 0.00 | 0.00 | 0.00 | 84 | 1019.9 |
| 20260501195519 | 53 | 261 | 0.0 | 0.9 | 0.00 | 0.00 | 0.00 | 83 | 1019.9 |